Retour au catalogue

COSMOS 2251 DEB

ActifLEO
NORAD 36385·DEBRIS·🇷🇺 Russia

Lancé Jun 16, 1993 depuis Plesetsk Cosmodrome

Loading…

Prochains Passages (prochaines 24 heures)

TLE

FraisSource: Space-Track

Époque: Sep 14, 2026, 12:45 UTC

1 36385U 93036AZN 26257.53153693  .00005680  00000-0  68999-3 0  9996
2 36385  73.9692 332.6128 0127992  79.7359 281.8218 14.78011814891708

Suivez COSMOS 2251 DEB en temps réel avec AllMySat

Download on the App Store